Location: Stanford
(52.2833°N, 2.4333°W)
Time: 01:14:37
(UTC+00:00)

YAOGAN 3 - Pass Details

Date: 22 January 2021
Orbit: 625 x 627 km, 98.0° (Epoch: 28 February)

Event Time Altitude Azimuth Distance (km) Brightness Sun altitude
Rises 17:55:11 0° 159° (SSE) 2,903 8.0 -11.4°
Reaches altitude 10° 17:57:22 10° 158° (SSE) 2,001 7.1 -11.7°
Maximum altitude 18:01:43 77° 73° (ENE) 652 4.5 -12.4°
Drops below altitude 10° 18:06:06 10° 348° (NNW) 2,017 7.2 -13.0°
Sets 18:08:18 0° 347° (NNW) 2,929 8.0 -13.4°
